DIPPU ENLI-ENSO

Flight info

Callsign DIPPU
Flight time 0h 42m
Altitude 2500
Route VFR
Aircraft AEST/L-S/S

Departure

Time 2026-04-23 11:27
Airport Lista Airport (ENLI)

Arrival

Time 2026-04-23 12:09
Airport Stord Airport, Sørstokken (ENSO)
Time Latitude Longitude Altitude Speed Heading
2026-04-23 11:14 58.10294 6.63158 27 ft 0 kts 333°
2026-04-23 11:20 58.10295 6.63157 27 ft 0 kts 332°
2026-04-23 11:21 58.10297 6.63143 27 ft 2 kts 248°
2026-04-23 11:21 58.10276 6.63158 27 ft 5 kts 133°
2026-04-23 11:21 58.10249 6.63151 27 ft 7 kts 201°
2026-04-23 11:21 58.10166 6.63105 27 ft 18 kts 195°
2026-04-23 11:22 58.10053 6.63084 28 ft 11 kts 143°
2026-04-23 11:22 58.09961 6.63182 28 ft 17 kts 127°
2026-04-23 11:22 58.09854 6.63422 29 ft 30 kts 131°
2026-04-23 11:22 58.09698 6.63742 31 ft 36 kts 131°
2026-04-23 11:23 58.09529 6.64113 44 ft 37 kts 131°
2026-04-23 11:23 58.09377 6.64417 34 ft 23 kts 178°
2026-04-23 11:23 58.09311 6.64265 34 ft 0 kts 252°
2026-04-23 11:25 58.09311 6.64264 34 ft 0 kts 252°
2026-04-23 11:25 58.09283 6.64142 35 ft 14 kts 234°
2026-04-23 11:26 58.09335 6.63960 34 ft 41 kts 310°
2026-04-23 11:26 58.09655 6.63260 44 ft 89 kts 311°
2026-04-23 11:26 58.10147 6.62213 44 ft 128 kts 311°
2026-04-23 11:26 58.10861 6.61182 383 ft 136 kts 335°
2026-04-23 11:27 58.11799 6.60588 730 ft 144 kts 338°
2026-04-23 11:27 58.12728 6.59952 1069 ft 139 kts 336°
2026-04-23 11:27 58.13613 6.59315 1378 ft 133 kts 339°
2026-04-23 11:27 58.14473 6.58709 1654 ft 130 kts 339°
2026-04-23 11:28 58.15314 6.58118 1912 ft 127 kts 339°
2026-04-23 11:28 58.16139 6.57521 2171 ft 126 kts 340°
2026-04-23 11:28 58.16954 6.56940 2410 ft 125 kts 340°
2026-04-23 11:28 58.17755 6.56369 2629 ft 125 kts 340°
2026-04-23 11:29 58.18597 6.55766 2681 ft 133 kts 339°
2026-04-23 11:29 58.19491 6.55124 2640 ft 141 kts 339°
2026-04-23 11:29 58.20426 6.54452 2563 ft 146 kts 339°
2026-04-23 11:29 58.21382 6.53766 2538 ft 147 kts 339°
2026-04-23 11:30 58.22340 6.53071 2547 ft 148 kts 339°
2026-04-23 11:30 58.23305 6.52368 2552 ft 149 kts 340°
2026-04-23 11:30 58.24279 6.51662 2552 ft 150 kts 340°
2026-04-23 11:30 58.25256 6.50959 2546 ft 150 kts 340°
2026-04-23 11:31 58.26231 6.50248 2542 ft 150 kts 340°
2026-04-23 11:31 58.27206 6.49555 2566 ft 150 kts 340°
2026-04-23 11:31 58.28187 6.48846 2555 ft 151 kts 340°
2026-04-23 11:31 58.29176 6.48126 2535 ft 152 kts 340°
2026-04-23 11:32 58.30154 6.47414 2554 ft 154 kts 340°
2026-04-23 11:32 58.31160 6.46678 2538 ft 152 kts 340°
2026-04-23 11:32 58.32159 6.45966 2557 ft 161 kts 340°
2026-04-23 11:32 58.33165 6.45216 2819 ft 145 kts 339°
2026-04-23 11:33 58.34067 6.44544 3133 ft 135 kts 341°
2026-04-23 11:33 58.34914 6.43940 3337 ft 125 kts 341°
2026-04-23 11:33 58.35714 6.43354 3489 ft 123 kts 341°
2026-04-23 11:33 58.36549 6.42748 3513 ft 135 kts 341°
2026-04-23 11:34 58.37455 6.42099 3451 ft 144 kts 341°
2026-04-23 11:34 58.38422 6.41388 3405 ft 153 kts 341°
2026-04-23 11:34 58.39437 6.40640 3376 ft 158 kts 342°
2026-04-23 11:34 58.40466 6.39905 3384 ft 159 kts 341°
2026-04-23 11:35 58.41488 6.39132 3368 ft 154 kts 342°
2026-04-23 11:35 58.42484 6.38432 3398 ft 151 kts 341°
2026-04-23 11:35 58.43462 6.37718 3401 ft 152 kts 341°
2026-04-23 11:35 58.44460 6.36987 3414 ft 156 kts 340°
2026-04-23 11:36 58.45478 6.36232 3386 ft 157 kts 341°
2026-04-23 11:36 58.46490 6.35487 3382 ft 158 kts 341°
2026-04-23 11:36 58.47515 6.34729 3370 ft 155 kts 342°
2026-04-23 11:36 58.48512 6.34011 3405 ft 151 kts 341°
2026-04-23 11:37 58.49501 6.33292 3399 ft 153 kts 341°
2026-04-23 11:37 58.50490 6.32560 3380 ft 151 kts 340°
2026-04-23 11:37 58.51472 6.31834 3388 ft 152 kts 340°
2026-04-23 11:37 58.52465 6.31105 3388 ft 153 kts 340°
2026-04-23 11:38 58.53461 6.30369 3418 ft 155 kts 340°
2026-04-23 11:38 58.54490 6.29611 3374 ft 160 kts 340°
2026-04-23 11:38 58.55532 6.28836 3375 ft 160 kts 341°
2026-04-23 11:38 58.56568 6.28042 3376 ft 159 kts 343°
2026-04-23 11:39 58.57610 6.27314 3405 ft 162 kts 342°
2026-04-23 11:39 58.58657 6.26532 3377 ft 159 kts 343°
2026-04-23 11:39 58.59678 6.25795 3431 ft 158 kts 342°
2026-04-23 11:39 58.60710 6.25035 3419 ft 159 kts 341°
2026-04-23 11:40 58.61748 6.24269 3433 ft 161 kts 340°
2026-04-23 11:40 58.62789 6.23485 3411 ft 160 kts 340°
2026-04-23 11:40 58.63833 6.22685 3355 ft 165 kts 342°
2026-04-23 11:40 58.64865 6.21943 3464 ft 153 kts 342°
2026-04-23 11:41 58.65872 6.21212 3429 ft 156 kts 340°
2026-04-23 11:41 58.66926 6.20635 3426 ft 161 kts 359°
2026-04-23 11:41 58.68019 6.21071 3419 ft 160 kts
2026-04-23 11:41 58.69119 6.21495 3362 ft 162 kts
2026-04-23 11:42 58.70245 6.21724 3240 ft 165 kts
2026-04-23 11:42 58.71393 6.21903 3199 ft 166 kts
2026-04-23 11:42 58.72553 6.22065 3131 ft 167 kts
2026-04-23 11:42 58.73694 6.22228 3033 ft 166 kts
2026-04-23 11:43 58.74848 6.22354 2983 ft 166 kts
2026-04-23 11:43 58.75983 6.22830 2838 ft 173 kts 14°
2026-04-23 11:43 58.77091 6.23687 2745 ft 172 kts 23°
2026-04-23 11:43 58.78123 6.24930 2739 ft 176 kts 27°
2026-04-23 11:44 58.79206 6.25951 2782 ft 172 kts
2026-04-23 11:44 58.80358 6.25752 2810 ft 168 kts 336°
2026-04-23 11:44 58.81242 6.24295 2670 ft 175 kts 311°
2026-04-23 11:44 58.81956 6.22350 2455 ft 181 kts 313°
2026-04-23 11:45 58.82690 6.20427 2276 ft 171 kts 313°
2026-04-23 11:45 58.83131 6.19237 2328 ft 160 kts 314°
2026-04-23 11:45 58.83757 6.17526 2443 ft 154 kts 313°
2026-04-23 11:45 58.84392 6.15837 2455 ft 157 kts 313°
2026-04-23 11:46 58.85034 6.14122 2463 ft 157 kts 313°
2026-04-23 11:46 58.85646 6.12324 2433 ft 165 kts 304°
2026-04-23 11:46 58.86135 6.10283 2446 ft 169 kts 303°
2026-04-23 11:46 58.86674 6.08262 2442 ft 170 kts 309°
2026-04-23 11:47 58.87443 6.06553 2464 ft 168 kts 332°
2026-04-23 11:47 58.88524 6.05813 2437 ft 168 kts 348°
2026-04-23 11:47 58.89658 6.05207 2414 ft 170 kts 343°
2026-04-23 11:47 58.90744 6.04448 2436 ft 167 kts 341°
2026-04-23 11:48 58.91831 6.03709 2443 ft 165 kts 342°
2026-04-23 11:48 58.92914 6.02984 2446 ft 163 kts 342°
2026-04-23 11:48 58.93989 6.02267 2452 ft 164 kts 342°
2026-04-23 11:48 58.95065 6.01539 2452 ft 164 kts 342°
2026-04-23 11:49 58.96139 6.00819 2449 ft 163 kts 342°
2026-04-23 11:49 58.97218 6.00102 2457 ft 165 kts 342°
2026-04-23 11:49 58.98303 5.99368 2451 ft 165 kts 342°
2026-04-23 11:49 58.99389 5.98613 2449 ft 166 kts 342°
2026-04-23 11:50 59.00474 5.97851 2441 ft 165 kts 342°
2026-04-23 11:50 59.01551 5.97089 2447 ft 164 kts 342°
2026-04-23 11:50 59.02621 5.96328 2456 ft 163 kts 342°
2026-04-23 11:50 59.03690 5.95556 2457 ft 164 kts 342°
2026-04-23 11:51 59.04769 5.94791 2445 ft 165 kts 342°
2026-04-23 11:51 59.05834 5.94041 2449 ft 165 kts 342°
2026-04-23 11:51 59.06912 5.93273 2418 ft 163 kts 342°
2026-04-23 11:51 59.07974 5.92504 2438 ft 163 kts 342°
2026-04-23 11:52 59.09037 5.91739 2437 ft 163 kts 342°
2026-04-23 11:52 59.10111 5.90978 2427 ft 164 kts 342°
2026-04-23 11:52 59.11188 5.90228 2428 ft 164 kts 342°
2026-04-23 11:52 59.12262 5.89492 2438 ft 164 kts 342°
2026-04-23 11:53 59.13334 5.88751 2448 ft 163 kts 342°
2026-04-23 11:53 59.14409 5.88001 2443 ft 164 kts 342°
2026-04-23 11:53 59.15464 5.87280 2445 ft 162 kts 342°
2026-04-23 11:53 59.16535 5.86559 2447 ft 163 kts 342°
2026-04-23 11:54 59.17602 5.85852 2450 ft 161 kts 342°
2026-04-23 11:54 59.18661 5.85125 2457 ft 161 kts 342°
2026-04-23 11:54 59.19735 5.84409 2450 ft 165 kts 342°
2026-04-23 11:54 59.20824 5.83691 2440 ft 165 kts 342°
2026-04-23 11:55 59.21910 5.82974 2444 ft 165 kts 342°
2026-04-23 11:55 59.22993 5.82268 2451 ft 163 kts 342°
2026-04-23 11:55 59.24069 5.81556 2447 ft 163 kts 342°
2026-04-23 11:55 59.25141 5.80828 2445 ft 162 kts 342°
2026-04-23 11:56 59.26214 5.80095 2443 ft 166 kts 342°
2026-04-23 11:56 59.27307 5.79355 2436 ft 165 kts 342°
2026-04-23 11:56 59.28366 5.78632 2513 ft 160 kts 342°
2026-04-23 11:56 59.29402 5.77908 2613 ft 156 kts 340°
2026-04-23 11:57 59.30387 5.77060 2704 ft 154 kts 337°
2026-04-23 11:57 59.31366 5.76179 2785 ft 154 kts 338°
2026-04-23 11:57 59.32350 5.75317 2874 ft 154 kts 338°
2026-04-23 11:57 59.33328 5.74466 2962 ft 154 kts 339°
2026-04-23 11:58 59.34307 5.73614 3049 ft 154 kts 339°
2026-04-23 11:58 59.35281 5.72757 3093 ft 153 kts 340°
2026-04-23 11:58 59.36252 5.71919 3166 ft 152 kts 339°
2026-04-23 11:58 59.37220 5.71084 3243 ft 151 kts 340°
2026-04-23 11:59 59.38178 5.70249 3267 ft 150 kts 340°
2026-04-23 11:59 59.39143 5.69420 3365 ft 151 kts 339°
2026-04-23 11:59 59.40113 5.68587 3494 ft 152 kts 338°
2026-04-23 11:59 59.41075 5.67738 3499 ft 148 kts 338°
2026-04-23 12:00 59.42011 5.66914 3557 ft 153 kts 338°
2026-04-23 12:00 59.42999 5.66052 3543 ft 158 kts 338°
2026-04-23 12:00 59.44003 5.65181 3513 ft 157 kts 338°
2026-04-23 12:00 59.45019 5.64295 3516 ft 161 kts 338°
2026-04-23 12:01 59.46046 5.63382 3529 ft 163 kts 338°
2026-04-23 12:01 59.47081 5.62473 3540 ft 163 kts 339°
2026-04-23 12:01 59.48115 5.61575 3552 ft 163 kts 339°
2026-04-23 12:01 59.49162 5.60660 3532 ft 165 kts 339°
2026-04-23 12:02 59.50205 5.59741 3526 ft 164 kts 339°
2026-04-23 12:02 59.51246 5.58829 3535 ft 163 kts 339°
2026-04-23 12:02 59.52273 5.57933 3529 ft 163 kts 339°
2026-04-23 12:02 59.53312 5.57017 3541 ft 164 kts 339°
2026-04-23 12:03 59.54368 5.56091 3494 ft 168 kts 338°
2026-04-23 12:03 59.55449 5.55139 3432 ft 171 kts 338°
2026-04-23 12:03 59.56548 5.54168 3294 ft 177 kts 339°
2026-04-23 12:03 59.57680 5.53182 3151 ft 177 kts 339°
2026-04-23 12:04 59.58809 5.52185 3023 ft 178 kts 338°
2026-04-23 12:04 59.59950 5.51178 2898 ft 181 kts 338°
2026-04-23 12:04 59.61083 5.50180 2748 ft 176 kts 338°
2026-04-23 12:04 59.62221 5.49179 2619 ft 179 kts 336°
2026-04-23 12:05 59.63353 5.48174 2507 ft 178 kts 337°
2026-04-23 12:05 59.64475 5.47177 2386 ft 176 kts 337°
2026-04-23 12:05 59.65601 5.46183 2278 ft 177 kts 336°
2026-04-23 12:05 59.66712 5.45195 2168 ft 177 kts 336°
2026-04-23 12:06 59.67811 5.44213 2049 ft 171 kts 336°
2026-04-23 12:06 59.68882 5.43259 1879 ft 165 kts 336°
2026-04-23 12:06 59.70992 5.41394 1524 ft 166 kts 336°
2026-04-23 12:07 59.72006 5.40499 1318 ft 154 kts 336°
2026-04-23 12:07 59.72975 5.39645 1113 ft 151 kts 338°
2026-04-23 12:07 59.73942 5.39021 906 ft 143 kts 342°
2026-04-23 12:07 59.74903 5.38468 733 ft 142 kts 342°
2026-04-23 12:08 59.75830 5.37924 726 ft 133 kts 342°
2026-04-23 12:08 59.76679 5.37422 673 ft 127 kts 340°
2026-04-23 12:08 59.77404 5.36778 635 ft 108 kts 319°
2026-04-23 12:08 59.77927 5.35847 363 ft 94 kts 323°
2026-04-23 12:09 59.78441 5.35140 220 ft 85 kts 323°
2026-04-23 12:09 59.78900 5.34499 162 ft 69 kts 324°
2026-04-23 12:09 59.79173 5.34115 162 ft 33 kts 324°
2026-04-23 12:09 59.79319 5.33911 161 ft 21 kts 325°
2026-04-23 12:10 59.79416 5.33779 159 ft 14 kts 329°
2026-04-23 12:10 59.79479 5.33867 158 ft 11 kts 34°
2026-04-23 12:10 59.79522 5.33852 161 ft 0 kts 327°